www.pogodaiklimat.ru

Погода и климат >> Архив погоды >> Испания >> Понтеведра


ПОГОДА в Понтеведре

  • Прогноз погоды в Понтеведре
  • Монитор погоды в Понтеведре

АРХИВ ПОГОДЫ в Понтеведре

Время (UTC), дата Ветер
(напр.,м/с)
 
Видим.   Явления Облачность Т
(С)
Тd
(С)
f
(%)
Тe
(С)
Тes
(С)
Комфортность P
(гПа)
Po
(гПа)
Тmin
(С)
Tmax
(С)
R
(мм)
R24
(мм)
S
(см)
10 11.08 ЮЗ 3 20 км н/о +19.1 +13.5 70 +21 +21 комфорт 1020.6 1007.9
11 11.08 ЮЗ 4 20 км н/о +19.1 +14.1 73 +20 +20 1020.9 1008.2
12 11.08 ЮЗ 4 12 км 5/5 300 м
[Cu med, cong Ac trans]
+21.1 +14.7 67 +24 +30 комфорт 1020.7 1008.1
13 11.08 ЮЗ 5 20 км н/о +21.2 +14.1 64 +24 +24 комфорт 1020.6 1008.0
14 11.08 ЮЗ 4 20 км н/о +21.3 +14.5 65 +24 +24 комфорт 1020.6 1008.0
15 11.08 ЮЗ 4 15 км 4/4 600 м
[Cu med, cong]
+21.4 +12.0 55 +24 +29 комфорт 1020.7 1008.1
16 11.08 З 4 20 км н/о +21.2 +11.2 53 +23 +23 комфорт 1020.7 1008.1
17 11.08 З 5 20 км н/о +20.4 +11.9 58 +22 +22 комфорт 1021.2 1008.5
18 11.08 З 3 10 км 4/4 600 м
[Cu med, cong]
+20.3 +12.3 60 +23 +23 комфорт 1021.0 1008.3 +21.9
19 11.08 ЮЗ 2 20 км н/о +18.7 +12.9 69 +20 +20 1021.4 1008.7
20 11.08 З 1 20 км н/о +17.3 +12.8 75 +18 +18 1022.0 1009.2
21 11.08 З 1 20 км н/о +16.4 +12.9 80 +18 +18 1022.9 1010.0
22 11.08 СВ 2 20 км н/о +15.7 +12.6 82 +16 +16 1023.1 1010.2
23 11.08 СВ 2 20 км н/о +15.0 +12.7 86 +15 +15 1023.2 1010.3
00 12.08 В 2 20 км н/о +14.3 +12.3 88 +14 +14 1023.4 1010.4
01 12.08 СВ 2 20 км н/о +13.6 +12.0 90 +13 +13 1023.3 1010.3
02 12.08 СВ 3 20 км н/о +13.0 +11.6 91 +12 +12 1023.0 1010.0
03 12.08 В 3 20 км н/о +12.4 +11.0 91 +11 +11 1023.0 1009.9
04 12.08 В 4 20 км н/о +11.9 +10.5 91 +10 +10 1023.0 1009.9
05 12.08 В 3 20 км н/о +11.6 +10.3 92 +10 +10 1023.2 1010.1
06 12.08 СВ 3 15 км ясно +11.6 +10.2 91 +10 +10 1023.5 1010.4 +11.5
07 12.08 СВ 3 20 км н/о +12.5 +10.4 87 +11 +11 1024.1 1011.0
08 12.08 В 2 20 км н/о +15.1 +11.7 80 +15 +15 1024.2 1011.3
09 12.08 С 2 20 км 1/1 300 м
[Cu hum Ci fib]
+18.0 +12.4 70 +19 +26 1023.9 1011.1
10 12.08 СВ 3 20 км н/о +19.9 +11.6 59 +22 +22 комфорт 1023.7 1011.0
11 12.08 С 3 20 км н/о +21.3 +11.3 53 +23 +23 комфорт 1023.8 1011.1
12 12.08 СЗ 3 15 км 8/1 600 м
[Cu med, cong Ci sp]
+20.6 +10.4 52 +23 +33 комфорт 1023.7 1011.0
13 12.08 С 4 20 км н/о +22.2 +9.7 45 +24 +24 комфорт 1023.1 1010.5
14 12.08 С 3 20 км н/о +22.0 +11.4 51 +24 +24 комфорт 1022.4 1009.8
15 12.08 СЗ 4 15 км 9/1 600 м
[Cu hum Ac As Ci sp]
+21.4 +11.7 54 +23 +28 комфорт 1021.8 1009.2
16 12.08 СЗ 4 20 км н/о +22.5 +12.1 52 +25 +25 комфорт 1021.7 1009.1
17 12.08 СЗ 4 20 км н/о +22.4 +11.2 49 +25 +25 комфорт 1021.6 1009.0
18 12.08 СЗ 4 10 км 5/1 600 м
[Cu hum Ac trans Cc]
+21.6 +10.4 49 +23 +24 комфорт 1021.8 1009.2 +22.7
19 12.08 С 3 20 км н/о +20.0 +10.7 55 +22 +22 комфорт 1022.4 1009.7
20 12.08 С 2 20 км н/о +18.0 +10.1 60 +19 +19 1022.9 1010.1
21 12.08 СЗ 2 20 км н/о +16.5 +11.0 70 +17 +17 1024.0 1011.1
22 12.08 С 1 20 км н/о +15.6 +11.0 74 +16 +16 1023.6 1010.7
23 12.08 СВ 2 20 км н/о +15.3 +11.3 77 +15 +15 1023.4 1010.5
00 13.08 СВ 2 20 км н/о +14.8 +11.2 79 +15 +15 1023.2 1010.3
01 13.08 СВ 2 20 км н/о +14.2 +9.8 75 +14 +14 1022.6 1009.6
02 13.08 С 1 20 км н/о +14.1 +8.7 70 +14 +14 1022.0 1009.0
03 13.08 ЮВ 1 20 км н/о +12.2 +9.6 84 +13 +13 1021.9 1008.8
04 13.08 ЮВ 1 20 км н/о +11.4 +9.1 86 +12 +12 1021.7 1008.6
05 13.08 ЮВ 1 20 км н/о +11.0 +9.1 88 +12 +12 1021.9 1008.8
06 13.08 ЮВ 1 15 км 4/0 2000 м
[As trans Ci fib]
+10.8 +8.7 87 +11 +11 1021.9 1008.8 +10.8
07 13.08 штиль 0 20 км н/о +11.4 +9.5 88 +11 +11 1022.2 1009.1
08 13.08 ЮЗ 1 20 км н/о +13.8 +9.8 77 +15 +15 1022.4 1009.4
09 13.08 ЮЗ 1 20 км 1/0
[Ci fib]
+16.3 +11.7 74 +17 +26 1022.2 1009.3
10 13.08 З 1 20 км н/о +19.0 +12.7 67 +21 +21 комфорт 1022.0 1009.3
11 13.08 З 2 20 км н/о +21.2 +12.9 59 +23 +23 комфорт 1021.5 1008.9
12 13.08 ЮЗ 2 20 км 3/1 300 м
[Cu hum Ci fib]
+22.1 +13.7 59 +25 +41 комфорт 1021.4 1008.8
13 13.08 ЮЗ 3 20 км н/о +23.1 +14.6 59 +27 +27 душно 1021.1 1008.6
14 13.08 ЮЗ 4 20 км н/о +23.1 +13.6 55 +26 +26 жарко 1020.8 1008.3
15 13.08 ЮЗ 4 20 км 1/1 300 м
[Cu hum]
+23.3 +14.6 58 +27 +35 душно 1020.3 1007.8
16 13.08 ЮЗ 4 20 км н/о +23.7 +14.1 55 +26 +26 жарко 1020.3 1007.8
17 13.08 ЮЗ 4 20 км н/о +23.4 +14.9 59 +27 +27 душно 1020.3 1007.8
18 13.08 ЮЗ 3 20 км 1/1 300 м
[Cu hum]
+22.2 +15.1 64 +26 +27 душно 1020.4 1007.8 +24.2
19 13.08 Ю 2 20 км н/о +21.2 +14.6 66 +24 +24 комфорт 1020.6 1008.0
20 13.08 ЮЗ 2 20 км н/о +18.7 +14.4 76 +20 +20 1021.0 1008.3
21 13.08 В 1 20 км н/о +17.5 +14.4 82 +19 +19 1021.4 1008.6
22 13.08 В 2 20 км н/о +16.6 +14.1 85 +17 +17 1021.3 1008.5
23 13.08 ЮВ 1 20 км н/о +16.1 +13.9 87 +17 +17 1021.4 1008.5
00 14.08 В 1 20 км н/о +15.6 +14.0 90 +16 +16 1021.4 1008.5
01 14.08 СВ 1 20 км н/о +15.3 +13.5 89 +16 +16 1021.3 1008.4
02 14.08 СВ 1 20 км н/о +15.0 +13.4 90 +15 +15 1021.7 1008.8
03 14.08 В 2 20 км н/о +14.9 +13.3 90 +15 +15 1021.3 1008.4
04 14.08 В 2 20 км н/о +14.2 +12.9 92 +14 +14 1021.2 1008.3
05 14.08 В 2 20 км н/о +14.7 +12.7 88 +14 +14 1020.7 1007.8
06 14.08 В 3 20 км н/о +14.0 +12.2 89 +13 +13 1021.3 1008.3 +14.0
07 14.08 В 3 20 км н/о +15.3 +12.2 82 +15 +15 1021.5 1008.6
08 14.08 В 2 20 км н/о +16.4 +12.6 78 +17 +17 1021.5 1008.7
09 14.08 Ю 1 15 км 10/8 300 м
[Sc Ac As]
+18.7 +13.1 70 +21 +22 комфорт 1021.5 1008.8
10 14.08 З 1 20 км н/о +20.0 +14.4 70 +24 +24 комфорт 1021.9 1009.2
11 14.08 ЮЗ 2 20 км н/о +20.9 +15.4 71 +25 +25 комфорт 1021.9 1009.3
12 14.08 З 3 15 км 9/6 300 м
[Sc Ac As]
+21.4 +17.2 77 +25 +28 комфорт 1021.9 1009.3
13 14.08 ЮЗ 2 20 км н/о +22.1 +17.5 75 +27 +27 душно 1021.8 1009.2
14 14.08 ЮЗ 2 20 км н/о +23.1 +17.8 72 +29 +29 очень
душно
1021.3 1008.8 0.0
15 14.08 ЮЗ 2 15 км 10/8 300 м
[Sc Ac As]
+22.5 +17.8 75 +28 +28 душно 1021.3 1008.7 0.0
16 14.08 ЮЗ 2 20 км н/о +22.6 +18.6 78 +28 +28 душно 1021.0 1008.5
17 14.08 ЮЗ 2 20 км н/о +23.3 +18.8 76 +30 +30 очень
душно
1020.7 1008.2
18 14.08 ЮЗ 2 10 км 4/3 200 м
[Cu med, cong Ac cuf]
+22.9 +18.7 77 +29 +30 очень
душно
1020.6 1008.1 +23.5
19 14.08 ЮЗ 3 20 км н/о +21.2 +18.4 84 +25 +25 комфорт 1020.8 1008.2
20 14.08 ЮЗ 2 8000 м н/о +18.9 +17.7 93 +21 +21 комфорт 1021.3 1008.6
21 14.08 Ю 1 1100 м н/о +18.5 +17.7 95 +21 +21 комфорт 1021.7 1009.0
22 14.08 ЮЗ 1 300 м н/о +18.4 +17.7 96 +21 +21 комфорт 1021.7 1009.0
23 14.08 ЮЗ 2 200 м в посл. час морось н/о +18.3 +17.7 96 +20 +20 1022.2 1009.5 0.0
00 15.08 С 1 5000 м дымка н/о +18.1 +17.6 97 +19 +19 1022.3 1009.5 0.0
01 15.08 С 1 7000 м н/о +17.9 +17.1 95 +20 +20 1021.9 1009.1
02 15.08 СВ 1 13 км н/о +16.9 +15.9 94 +18 +18 1021.6 1008.8
03 15.08 С 1 13 км н/о +16.1 +15.1 94 +17 +17 1021.4 1008.6
04 15.08 СВ 2 20 км н/о +15.8 +14.8 94 +16 +16 1021.2 1008.3
05 15.08 СВ 1 20 км н/о +15.1 +14.1 94 +16 +16 1021.2 1008.3
06 15.08 СВ 2 20 км ясно +14.8 +13.2 90 +15 +15 1021.2 1008.3 +14.7
07 15.08 СВ 1 20 км н/о +15.7 +14.1 90 +17 +17 1021.3 1008.4
08 15.08 ЮЗ 1 20 км н/о +18.0 +14.9 82 +20 +20 1021.2 1008.4
09 15.08 Ю 1 20 км ясно +20.3 +15.1 72 +24 +33 комфорт 1021.2 1008.5
10 15.08 З 3 20 км н/о +22.2 +16.2 69 +26 +26 душно 1021.0 1008.4
11 15.08 ЮЗ 3 20 км н/о +23.3 +15.4 61 +28 +28 душно 1020.9 1008.4
12 15.08 ЮЗ 3 20 км ясно +24.9 +16.9 61 +29 +44 душно 1020.6 1008.1
13 15.08 ЮЗ 3 20 км н/о +25.5 +17.4 61 +30 +30 душно 1020.4 1008.0
14 15.08 ЮЗ 4 20 км н/о +25.9 +16.7 57 +30 +30 душно 1020.0 1007.6
15 15.08 ЮЗ 4 20 км 1/1 600 м
[Cu hum]
+26.7 +17.7 58 +31 +39 душно 1019.5 1007.1
16 15.08 ЮЗ 3 20 км н/о +27.0 +18.0 58 +32 +32 очень
душно
1019.1 1006.8
17 15.08 ЮЗ 3 20 км н/о +26.8 +17.8 58 +31 +31 душно 1018.8 1006.5
18 15.08 Ю 2 20 км ясно +25.6 +18.0 63 +30 +32 душно 1018.8 1006.4 +27.4
19 15.08 СЗ 2 20 км н/о +25.1 +16.0 57 +28 +28 жарко 1019.0 1006.6
20 15.08 СЗ 2 20 км н/о +22.7 +15.0 62 +27 +27 душно 1019.4 1006.9
21 15.08 С 1 20 км н/о +21.0 +14.6 67 +25 +25 комфорт 1019.9 1007.3
22 15.08 С 1 20 км н/о +19.7 +14.5 72 +23 +23 комфорт 1020.0 1007.3
23 15.08 СВ 1 20 км н/о +18.5 +15.2 81 +21 +21 комфорт 1019.6 1006.9
00 16.08 ЮВ 1 20 км н/о +17.2 +14.3 83 +19 +19 1019.8 1007.0
01 16.08 СВ 2 20 км н/о +16.5 +14.1 86 +17 +17 1019.6 1006.8
02 16.08 СВ 2 20 км н/о +15.8 +14.0 89 +16 +16 1019.4 1006.6
03 16.08 СВ 2 20 км н/о +15.3 +13.5 89 +15 +15 1019.1 1006.2
04 16.08 СВ 3 20 км н/о +14.6 +13.1 91 +14 +14 1019.2 1006.3
05 16.08 СВ 3 20 км н/о +14.5 +12.7 89 +14 +14 1019.3 1006.4
06 16.08 СВ 1 20 км н/о +13.6 +12.2 91 +15 +15 1019.3 1006.4 +13.6
07 16.08 СВ 2 20 км н/о +14.8 +13.0 89 +14 +14 1019.6 1006.7
08 16.08 С 1 20 км н/о +17.6 +14.1 80 +19 +19 1019.3 1006.5
09 16.08 З 1 20 км 1/0
[Ci fib]
+19.0 +14.9 77 +21 +30 комфорт 1019.0 1006.3
10 16.08 ЮЗ 2 20 км н/о +21.2 +15.7 71 +24 +24 комфорт 1019.3 1006.7
11 16.08 З 3 20 км н/о +22.3 +16.6 70 +27 +27 душно 1018.9 1006.4
12 16.08 ЮЗ 3 20 км 1/0
[Ci fib]
+23.1 +15.9 64 +28 +41 душно 1018.9 1006.4
13 16.08 ЮЗ 3 20 км н/о +24.0 +16.8 64 +28 +28 душно 1018.7 1006.2
14 16.08 ЮЗ 4 20 км н/о +24.2 +17.0 64 +28 +28 душно 1018.6 1006.1
15 16.08 ЮЗ 3 20 км 3/0
[Ci sp]
+24.4 +16.9 63 +28 +38 душно 1018.3 1005.9
16 16.08 ЮЗ 3 20 км н/о +23.8 +16.8 65 +27 +27 жарко 1018.1 1005.6
17 16.08 ЮЗ 4 20 км н/о +22.8 +17.3 71 +28 +28 душно 1018.2 1005.7
18 16.08 ЮЗ 3 20 км 4/4 600 м
[Sc Ci sp]
+22.3 +17.4 74 +27 +28 душно 1017.9 1005.4 +24.8
19 16.08 ЮЗ 2 20 км н/о +20.4 +17.0 81 +24 +24 комфорт 1018.1 1005.5
20 16.08 ЮЗ 1 20 км н/о +19.5 +16.9 85 +23 +23 комфорт 1018.4 1005.7
21 16.08 СВ 1 20 км н/о +18.8 +16.8 88 +22 +22 комфорт 1019.0 1006.3
22 16.08 ЮВ 1 20 км н/о +18.0 +16.5 91 +19 +19 1019.0 1006.3
23 16.08 ЮЗ 1 20 км н/о +18.5 +16.8 90 +21 +21 комфорт 1018.6 1005.9
00 17.08 СВ 1 20 км н/о +18.1 +16.6 91 +19 +19 1018.3 1005.6
01 17.08 З 1 20 км н/о +18.0 +16.7 92 +20 +20 1018.2 1005.5
02 17.08 В 1 20 км н/о +18.2 +16.9 92 +20 +20 1017.7 1005.0
03 17.08 Ю 1 20 км н/о +18.2 +16.7 91 +20 +20 1017.2 1004.5
04 17.08 Ю 1 20 км н/о +18.2 +16.5 90 +20 +20 1017.0 1004.3
05 17.08 ЮВ 2 20 км н/о +18.2 +16.5 90 +19 +19 1017.0 1004.3
06 17.08 штиль 0 20 км 9/9 600 м
[Sc]
+18.1 +16.6 91 +18 +18 1016.8 1004.1 +17.9
07 17.08 СЗ 2 20 км н/о +18.5 +17.0 91 +20 +20 1016.7 1004.0
08 17.08 Ю 1 20 км н/о +19.6 +17.2 86 +23 +23 комфорт 1016.8 1004.2
09 17.08 Ю 2 20 км 10/10 600 м
[Cu Sc]
+20.9 +17.5 81 +25 +25 комфорт 1016.7 1004.1
10 17.08 Ю 3 19 км н/о +22.6 +17.3 72 +27 +27 душно 1016.3 1003.8
11 17.08 Ю 3 7000 м н/о +24.1 +18.1 69 +28 +28 душно 1016.0 1003.6
12 17.08 ЮЗ 4 20 км 10/10 600 м
[Cu Sc]
+23.0 +18.7 77 +29 +29 очень
душно
1016.1 1003.6
13 17.08 ЮЗ 3 20 км н/о +22.3 +18.7 80 +28 +28 душно 1015.8 1003.3
14 17.08 ЮЗ 4 20 км н/о +22.9 +18.9 78 +29 +29 очень
душно
1015.5 1003.0
15 17.08 ЮЗ 4 20 км 9/5 600 м
[Cu Sc Ci sp]
+22.7 +18.9 79 +29 +32 очень
душно
1015.2 1002.7
16 17.08 ЮЗ 5 20 км н/о +22.4 +19.0 81 +28 +28 душно 1015.0 1002.5
17 17.08 ЮЗ 4 20 км н/о +22.8 +18.8 78 +29 +29 очень
душно
1014.8 1002.3
18 17.08 ЮЗ 4 20 км 9/9 600 м
[Cu Sc]
+22.8 +19.0 79 +29 +29 очень
душно
1014.6 1002.1 +24.7
19 17.08 ЮЗ 2 20 км н/о +21.9 +18.7 82 +27 +27 душно 1014.0 1001.5
20 17.08 ЮЗ 1 20 км н/о +21.1 +18.5 85 +25 +25 комфорт 1014.0 1001.5
21 17.08 Ю 1 20 км н/о +20.6 +18.4 87 +26 +26 душно 1014.5 1002.0
22 17.08 Ю 2 20 км н/о +20.6 +18.4 87 +25 +25 комфорт 1014.4 1001.9
23 17.08 ЮЗ 2 20 км н/о +20.6 +18.4 87 +25 +25 комфорт 1013.9 1001.4
00 18.08 Ю 3 20 км н/о +20.7 +18.5 87 +25 +25 комфорт 1013.4 1000.9
01 18.08 Ю 3 20 км н/о +20.6 +18.5 88 +25 +25 комфорт 1012.9 1000.4
02 18.08 Ю 2 6000 м слаб. морось с дождем н/о +20.5 +18.8 90 +25 +25 комфорт 1012.4 999.9 0.0
03 18.08 ЮЗ 2 6000 м слаб. морось н/о +19.7 +18.9 95 +23 +23 комфорт 1012.1 999.5 0.8
04 18.08 З 1 1600 м сильн. дождь н/о +19.5 +19.0 97 +23 +23 комфорт 1011.7 999.1 9
05 18.08 Ю 2 4100 м в посл. час морось н/о +19.0 +18.5 97 +21 +21 комфорт 1011.9 999.3 1
06 18.08 З 2 18 км в посл. час дождь 10/10 300 м
[Cu Sc]
+18.1 +17.5 96 +19 +19 1012.7 1000.1 +18.1 10
07 18.08 СВ 2 7000 м слаб. морось н/о +17.7 +16.7 94 +18 +18 1013.5 1000.8 0.0
08 18.08 СЗ 3 20 км в посл. час морось н/о +17.5 +16.5 94 +18 +18 1014.4 1001.7 0.0

 

Местоположение метеостанции Понтеведра (Испания): широта 42.43 долгота -8.62 высота над уровнем моря 108 м.

В архиве по умолчанию представлена погода в Понтеведре за последнюю неделю. Архивные данные за месяц целиком и за предыдущие месяцы, начиная с января 2011 года, Вы можете получить, выбрав интересующий диапазон дат из раскрывающегося списка и нажав кнопку "Ввод!".


*Определитесь, кто Вы:
робот инопланетянин человек

Внимание! Время в таблицах - всемирное. Для получения местного времени необходимо прибавить поправку, которая равна 1 ч.

Смотрите также архив погоды в соседних городах и на ближайших метеорологических станциях:

Погода в Виго (Испания) (22 км)
Погода в Падроне (Испания) (34 км)
Погода в Карбальино (Испания) (44 км)
Погода в Сантьяго-де-Компостеле (Испания) (50 км)
Погода в Сантьяго (Испания) (55 км)
Погода в Оренсе (Испания) (63 км)
Погода в Фистерре (Испания) (77 км)
Погода в Хинсо-де-Лимии (Испания) (83 км)
Погода в Виана-ду-Каштелу (Португалия) (90 км)
Погода на Кабо Вилан (Испания) (94 км)

Пояснения к столбцам:

Ветер - указаны скорость ветра в м/с - средняя за 10 мин, порывы в срок и между сроками (в фигурных скобках) и направление, откуда дует ветер: С - северный, СВ - северо-восточный, В - восточный, ЮВ - юго-восточный, Ю - южный, ЮЗ - юго-западный, З - западный, СЗ - северо-западный.
Видимость - горизонтальная дальность видимости в метрах или километрах. При видимости от 1 до 10 км при отсутствии осадков обычно наблюдается дымка, при ухудшении видимости до 1 км и менее - туман. В сухую погоду видимость может ухудшаться дымом, пылью или мглою.
Явления - указаны атмосферные явления, наблюдавшиеся в срок или в последний час перед сроком; фигурными скобками обозначены явления, наблюдавшиеся между сроками (за 1-3 часа до срока); квадратными скобками обозначены град или гололедные отложения с указанием их диаметра в мм.
Облачность - указаны через наклонную черту общая и нижняя облачность в баллах и высота нижней границы облаков в метрах; квадратными скобками обозначены формы облаков: Ci - перистые, Cs - перисто-слоистые, Cc - перисто-кучевые, Ac - высококучевые, As - высокослоистые, Sc - слоисто-кучевые, Ns - слоисто-дождевые, Cu - кучевые, Cb - кучево-дождевые. Подробнее классификацию облаков см. в Атласе облаков (PDF).
T - Температура воздуха - температура, измеренная на высоте 2 м над землей.
Td - Температура точки росы - температура, при понижении до которой содержащийся в воздухе водяной пар достигнет насыщения.
f - Относительная влажность воздуха - влажноcть воздуха, измеренная на высоте 2 м над землей.
Te - Эффективная температура - температура, которую ощущает одетый по сезону человек в тени. Характеристика душности погоды. При расчете учитывается влияние влажности воздуха и скорости ветра на теплоощущения человека.
Tes - Эффективная температура на солнце - температура, которую ощущает человек, с поправкой на солнечный нагрев. Характеристика знойности погоды. Зависит от высоты солнца над горизонтом, облачности и скорости ветра. Ночью, в пасмурную погоду, а также при ветре 12 м/с и более поправка равна нулю.
P - Атмосферное давление - приведенное к уровню моря атмосферное давление.
Po - Атмосферное давление - измеренное на уровне метеостанции атмосферное давление.
Tmin - Минимальная температура - минимум температуры воздуха на высоте 2 м над землей.
Tmax - Максимальная температура - максимум температуры воздуха на высоте 2 м над землей.
R - Количество осадков - Количество выпавших осадков за период времени, мм. При наведении курсора мыши на число - период времени, за который выпало указанное количество осадков.
R24 - Количество осадков - Количество выпавших осадков за 24 часа, мм.
S - Снежный покров - Высота снежного покрова, см. При наведении курсора мыши на число - состояние снежного покрова и степень покрытия местности в баллах.